International Skating Union - Official Site

ISU World Allround Championships 2016
March 5-6, 2016

Draw | Lap Times | Index | Classification

Referee: Rick  HUNT  (CAN)
Starter: Roland  STEENBECK  (GER)
StartTime: EndTime: Air Temp: Ice Temp: Humidity:
15:28 16:29 14.2℃ -6.9℃ 28.5%
Result 10000m Men
Rankings as of Mar 6 2016 4:41PM
Rank: No.: Name: Nation: Time: Behind: Points:
1 18 Sven  Kramer NED NED 13:07.19400m - 34.76 - (34.7)
800m - 1:05.92 - (31.1)
1200m - 1:37.54 - (31.6)
1600m - 2:08.91 - (31.3)
2000m - 2:40.42 - (31.5)
2400m - 3:12.22 - (31.8)
2800m - 3:43.96 - (31.7)
3200m - 4:15.63 - (31.6)
3600m - 4:47.40 - (31.7)
4000m - 5:18.99 - (31.5)
4400m - 5:50.82 - (31.8)
4800m - 6:22.33 - (31.5)
5200m - 6:53.98 - (31.6)
5600m - 7:25.67 - (31.6)
6000m - 7:56.95 - (31.2)
6400m - 8:28.08 - (31.1)
6800m - 8:59.59 - (31.5)
7200m - 9:31.36 - (31.7)
7600m - 10:03.19 - (31.8)
8000m - 10:34.75 - (31.5)
8400m - 11:06.07 - (31.3)
8800m - 11:36.09 - (30.0)
9200m - 12:05.80 - (29.7)
9600m - 12:35.99 - (30.1)
10000m - 13:07.19 - (31.2)
39.359
2 16 Jan  Blokhuijsen NED NED 13:10.92400m - 34.90 - (34.9)
800m - 1:06.23 - (31.3)
1200m - 1:37.95 - (31.7)
1600m - 2:09.73 - (31.7)
2000m - 2:41.55 - (31.8)
2400m - 3:13.30 - (31.7)
2800m - 3:44.98 - (31.6)
3200m - 4:16.85 - (31.8)
3600m - 4:48.63 - (31.7)
4000m - 5:20.45 - (31.8)
4400m - 5:52.33 - (31.8)
4800m - 6:24.18 - (31.8)
5200m - 6:55.74 - (31.5)
5600m - 7:27.15 - (31.4)
6000m - 7:58.65 - (31.5)
6400m - 8:30.04 - (31.3)
6800m - 9:01.30 - (31.2)
7200m - 9:32.50 - (31.2)
7600m - 10:03.79 - (31.2)
8000m - 10:35.24 - (31.4)
8400m - 11:06.57 - (31.3)
8800m - 11:37.59 - (31.0)
9200m - 12:08.73 - (31.1)
9600m - 12:39.99 - (31.2)
10000m - 13:10.92 - (30.9)
3.73 39.546
3 23 Sverre Lunde  Pedersen NOR NOR 13:11.83400m - 34.91 - (34.9)
800m - 1:06.05 - (31.1)
1200m - 1:37.46 - (31.4)
1600m - 2:09.27 - (31.8)
2000m - 2:40.82 - (31.5)
2400m - 3:12.51 - (31.6)
2800m - 3:44.00 - (31.4)
3200m - 4:15.70 - (31.7)
3600m - 4:47.35 - (31.6)
4000m - 5:19.15 - (31.8)
4400m - 5:50.76 - (31.6)
4800m - 6:22.56 - (31.8)
5200m - 6:54.07 - (31.5)
5600m - 7:25.66 - (31.5)
6000m - 7:57.02 - (31.3)
6400m - 8:28.58 - (31.5)
6800m - 9:00.03 - (31.4)
7200m - 9:31.63 - (31.6)
7600m - 10:03.15 - (31.5)
8000m - 10:34.78 - (31.6)
8400m - 11:06.19 - (31.4)
8800m - 11:37.59 - (31.4)
9200m - 12:08.90 - (31.3)
9600m - 12:40.22 - (31.3)
10000m - 13:11.83 - (31.6)
4.64 39.591
4 20 Håvard  Bøkko NOR NOR 13:19.25400m - 35.63 - (35.6)
800m - 1:06.99 - (31.3)
1200m - 1:39.14 - (32.1)
1600m - 2:10.87 - (31.7)
2000m - 2:42.81 - (31.9)
2400m - 3:14.87 - (32.0)
2800m - 3:46.84 - (31.9)
3200m - 4:19.08 - (32.2)
3600m - 4:51.08 - (32.0)
4000m - 5:23.26 - (32.1)
4400m - 5:55.33 - (32.0)
4800m - 6:27.46 - (32.1)
5200m - 6:59.56 - (32.1)
5600m - 7:31.62 - (32.0)
6000m - 8:03.54 - (31.9)
6400m - 8:35.52 - (31.9)
6800m - 9:07.34 - (31.8)
7200m - 9:39.15 - (31.8)
7600m - 10:10.92 - (31.7)
8000m - 10:42.61 - (31.6)
8400m - 11:14.39 - (31.7)
8800m - 11:46.12 - (31.7)
9200m - 12:17.62 - (31.5)
9600m - 12:49.00 - (31.3)
10000m - 13:19.25 - (30.2)
12.06 39.962
5 3 Ted-Jan  Bloemen CAN CAN 13:21.91400m - 35.11 - (35.1)
800m - 1:06.66 - (31.5)
1200m - 1:38.24 - (31.5)
1600m - 2:09.82 - (31.5)
2000m - 2:41.35 - (31.5)
2400m - 3:12.84 - (31.4)
2800m - 3:44.15 - (31.3)
3200m - 4:15.69 - (31.5)
3600m - 4:47.77 - (32.0)
4000m - 5:19.85 - (32.0)
4400m - 5:52.18 - (32.3)
4800m - 6:24.96 - (32.7)
5200m - 6:57.63 - (32.6)
5600m - 7:29.85 - (32.2)
6000m - 8:02.61 - (32.7)
6400m - 8:35.12 - (32.5)
6800m - 9:07.50 - (32.3)
7200m - 9:39.82 - (32.3)
7600m - 10:12.34 - (32.5)
8000m - 10:44.36 - (32.0)
8400m - 11:16.11 - (31.7)
8800m - 11:48.04 - (31.9)
9200m - 12:19.65 - (31.6)
9600m - 12:50.98 - (31.3)
10000m - 13:21.91 - (30.9)
14.72 40.095
6 6 Patrick  Beckert GER GER 13:27.15400m - 36.59 - (36.5)
800m - 1:09.69 - (33.1)
1200m - 1:42.93 - (33.2)
1600m - 2:15.88 - (32.9)
2000m - 2:48.62 - (32.7)
2400m - 3:21.26 - (32.6)
2800m - 3:54.09 - (32.8)
3200m - 4:26.69 - (32.6)
3600m - 4:59.01 - (32.3)
4000m - 5:31.48 - (32.4)
4400m - 6:03.94 - (32.4)
4800m - 6:36.23 - (32.2)
5200m - 7:08.32 - (32.0)
5600m - 7:40.40 - (32.0)
6000m - 8:12.45 - (32.0)
6400m - 8:44.54 - (32.0)
6800m - 9:16.41 - (31.8)
7200m - 9:48.18 - (31.7)
7600m - 10:19.90 - (31.7)
8000m - 10:51.51 - (31.6)
8400m - 11:23.24 - (31.7)
8800m - 11:54.84 - (31.6)
9200m - 12:26.10 - (31.2)
9600m - 12:56.91 - (30.8)
10000m - 13:27.15 - (30.2)
19.96 40.357
7 9 Andrea  Giovannini ITA ITA 13:32.05400m - 35.61 - (35.6)
800m - 1:08.03 - (32.4)
1200m - 1:40.52 - (32.4)
1600m - 2:12.61 - (32.0)
2000m - 2:44.51 - (31.9)
2400m - 3:16.69 - (32.1)
2800m - 3:49.05 - (32.3)
3200m - 4:21.49 - (32.4)
3600m - 4:54.07 - (32.5)
4000m - 5:26.71 - (32.6)
4400m - 5:59.60 - (32.8)
4800m - 6:31.99 - (32.3)
5200m - 7:04.52 - (32.5)
5600m - 7:37.03 - (32.5)
6000m - 8:09.28 - (32.2)
6400m - 8:41.46 - (32.1)
6800m - 9:13.45 - (31.9)
7200m - 9:45.56 - (32.1)
7600m - 10:17.67 - (32.1)
8000m - 10:50.01 - (32.3)
8400m - 11:22.00 - (31.9)
8800m - 11:54.14 - (32.1)
9200m - 12:26.73 - (32.5)
9600m - 12:59.47 - (32.7)
10000m - 13:32.05 - (32.5)
24.86 40.602
8 25 Konrad  Niedzwiedzki POL POL 14:11.76400m - 36.79 - (36.7)
800m - 1:09.41 - (32.6)
1200m - 1:42.84 - (33.4)
1600m - 2:16.41 - (33.5)
2000m - 2:49.68 - (33.2)
2400m - 3:23.21 - (33.5)
2800m - 3:56.71 - (33.5)
3200m - 4:30.56 - (33.8)
3600m - 5:04.44 - (33.8)
4000m - 5:38.36 - (33.9)
4400m - 6:12.59 - (34.2)
4800m - 6:46.77 - (34.1)
5200m - 7:21.13 - (34.3)
5600m - 7:55.36 - (34.2)
6000m - 8:29.50 - (34.1)
6400m - 9:03.88 - (34.3)
6800m - 9:38.30 - (34.4)
7200m - 10:12.84 - (34.5)
7600m - 10:47.44 - (34.6)
8000m - 11:22.21 - (34.7)
8400m - 11:56.50 - (34.2)
8800m - 12:30.70 - (34.2)
9200m - 13:04.42 - (33.7)
9600m - 13:38.07 - (33.6)
10000m - 14:11.76 - (33.6)
64.57 42.588